Weather History for Barter Island, AK

Change the Weather History Date:

Saturday, January 7, 2012

  Actual Average Record
Temperature  
Mean Temperature -17 °F -  
Max Temperature -26 °F 0 °F 39 °F (2005)
Min Temperature -26 °F -12 °F -36 °F (1997)
Degree Days  
Heating Degree Days 82    
Moisture  
Dew Point -17 °F    
Average Humidity 80    
Maximum Humidity 86    
Minimum Humidity 74    
Precipitation  
Precipitation 0.00 in - - ()
Sea Level Pressure  
Sea Level Pressure 29.51 in    
Wind  
Wind Speed 25 mph (West)    
Max Wind Speed 37 mph    
Max Gust Speed 40 mph    
Visibility 4 miles    
Events Snow    
Averages and records for this station are not official NWS values.
T = Trace of Precipitation, MM = Missing Value Source: NWS Daily Summary

Daily Weather History Graph

Daily Weather History Graph

Search for Another Location

Airport:

Trip Planner

Search our weather history database for the weather conditions in past years. The results will help you decide how hot, cold, wet, or windy it might be!

Date:

Astronomy

Jan. 07, 2012 Rise Set
Actual Time 12:08 PM AKST 1:12 PM AKST
Civil Twilight 10:15 AM AKST 3:06 PM AKST
Nautical Twilight 8:34 AM AKST 4:47 PM AKST
Astronomical Twilight 7:16 AM AKST 6:05 PM AKST
Moon No Moon Rise No Moon Set
Length of Visible Light 4h 50m
Length of Day
1h 04m
Waxing Gibbous, 98% of the Moon is Illuminated
Jan 7
Waxing Gibbous
Jan 8
Full
Jan 16
Last Quarter
Jan 22
New
Jan 30
First Quarter

Hourly Weather History & Observations

Time (AKST) Temp. Windchill Dew Point Humidity Pressure Visibility Wind Dir Wind Speed Gust Speed Precip Events Conditions
12:01 AM -11.0 °F -36.8 °F -15.0 °F 83% 29.49 in 6.0 mi West 20.7 mph - 0.00 in Snow Light Snow
12:43 AM -9.4 °F -36.3 °F -14.8 °F 77% 29.48 in 1.8 mi WNW 24.2 mph 31.1 mph 0.00 in Snow Light Snow
12:49 AM -9.4 °F -36.3 °F -14.8 °F 77% 29.48 in 2.0 mi WNW 24.2 mph - 0.00 in Snow Light Snow
1:01 AM -9.9 °F -37.0 °F -14.1 °F 82% 29.49 in 2.5 mi WNW 24.2 mph - 0.00 in Snow Light Snow
1:05 AM -9.4 °F -35.2 °F -14.8 °F 77% 29.49 in 3.0 mi WNW 21.9 mph - 0.00 in Snow Light Snow
1:23 AM -9.4 °F -36.8 °F -14.8 °F 77% 29.51 in 2.5 mi WNW 25.3 mph 29.9 mph 0.00 in Snow Light Snow
1:52 AM -9.4 °F -35.2 °F -14.8 °F 77% 29.52 in 2.5 mi WNW 21.9 mph 28.8 mph 0.00 in Snow Light Snow
2:01 AM -9.9 °F -38.4 °F -14.1 °F 82% 29.53 in 2.0 mi WNW 27.6 mph - 0.00 in Snow Light Snow
2:08 AM -9.4 °F -39.0 °F -14.8 °F 77% 29.54 in 1.5 mi WNW 31.1 mph 34.5 mph 0.00 in Snow Light Snow
3:01 AM -9.4 °F -38.2 °F -13.0 °F 84% 29.52 in 1.0 mi West 28.8 mph 34.5 mph 0.00 in Snow Light Snow
3:08 AM -9.4 °F -38.2 °F -13.0 °F 84% 29.52 in 0.8 mi West 28.8 mph - 0.00 in Snow Light Snow
3:17 AM -9.4 °F -38.6 °F -13.0 °F 84% 29.52 in 1.0 mi West 29.9 mph - 0.00 in Snow Light Snow
3:26 AM -9.4 °F -38.2 °F -13.0 °F 84% 29.52 in 1.0 mi West 28.8 mph - 0.00 in Snow Light Snow
3:53 AM -9.4 °F -36.8 °F -14.8 °F 77% 29.52 in 1.0 mi West 25.3 mph - 0.00 in Snow Light Snow
4:01 AM -9.4 °F -39.0 °F -13.0 °F 84% 29.52 in 0.8 mi West 31.1 mph - 0.00 in Snow Light Snow
4:12 AM -9.9 °F -38.4 °F -13.0 °F 86% 29.52 in 0.8 mi West 27.6 mph - 0.00 in Snow Light Snow
4:14 AM -9.4 °F -38.2 °F -13.0 °F 84% 29.52 in 0.8 mi West 28.8 mph - 0.00 in Snow Light Snow
4:33 AM -9.4 °F -40.2 °F -14.8 °F 77% 29.53 in 0.8 mi West 34.5 mph - 0.00 in Snow Light Snow
4:59 AM -9.4 °F -40.9 °F -14.8 °F 77% 29.54 in 0.8 mi West 36.8 mph - 0.00 in Snow Light Snow
5:01 AM -9.4 °F -40.2 °F -14.8 °F 77% 29.53 in 0.5 mi West 34.5 mph - 0.00 in Snow Snow
5:08 AM -11.2 °F -43.4 °F -14.8 °F 84% 29.53 in 0.8 mi West 36.8 mph 40.3 mph 0.00 in Snow Light Snow
5:15 AM -11.2 °F -41.5 °F -14.8 °F 84% 29.53 in 0.8 mi West 31.1 mph 40.3 mph 0.00 in Snow Light Snow
5:26 AM -11.2 °F -42.3 °F -14.8 °F 84% 29.53 in 1.0 mi West 33.4 mph 40.3 mph 0.00 in Snow Light Snow
5:36 AM -11.2 °F -41.0 °F -14.8 °F 84% 29.53 in 0.8 mi West 29.9 mph - 0.00 in Snow Light Snow
5:45 AM -11.2 °F -40.1 °F -14.8 °F 84% 29.53 in 1.0 mi West 27.6 mph 38.0 mph 0.00 in Snow Light Snow
5:52 AM -11.2 °F -43.0 °F -14.8 °F 84% 29.53 in 0.8 mi West 35.7 mph - 0.00 in Snow Light Snow
6:01 AM -11.9 °F -43.6 °F -16.1 °F 82% 29.53 in 0.8 mi West 34.5 mph 39.1 mph 0.00 in Snow Light Snow
6:10 AM -11.2 °F -41.9 °F -16.6 °F 77% 29.53 in 1.0 mi West 32.2 mph 40.3 mph 0.00 in Snow Light Snow
7:01 AM -11.9 °F -42.8 °F -16.1 °F 82% 29.53 in 1.0 mi West 32.2 mph 39.1 mph 0.00 in Snow Light Snow
7:18 AM -11.2 °F -42.3 °F -16.6 °F 77% 29.54 in 1.5 mi West 33.4 mph 36.8 mph 0.00 in Snow Light Snow
7:25 AM -11.2 °F -41.9 °F -16.6 °F 77% 29.54 in 1.5 mi West 32.2 mph 36.8 mph 0.00 in Snow Light Snow
8:01 AM -11.2 °F -41.0 °F -16.6 °F 77% 29.53 in 2.5 mi West 29.9 mph - 0.00 in   Overcast
8:20 AM -11.2 °F -39.7 °F -16.6 °F 77% 29.53 in 2.5 mi West 26.5 mph 33.4 mph 0.00 in   Overcast
8:34 AM -11.2 °F -39.7 °F -16.6 °F 77% 29.53 in 3.0 mi West 26.5 mph - 0.00 in   Haze
9:01 AM -11.2 °F -39.2 °F -16.6 °F 77% 29.53 in 5.0 mi West 25.3 mph - 0.00 in   Partly Cloudy
10:01 AM -13.0 °F -40.6 °F -17.0 °F 82% 29.53 in 4.0 mi West 23.0 mph - 0.00 in   Clear
11:01 AM -13.0 °F -40.6 °F -17.0 °F 82% 29.53 in 4.0 mi West 23.0 mph - N/A   Clear
12:01 PM -14.1 °F -36.6 °F -18.0 °F 82% 29.52 in 10.0 mi West 13.8 mph - N/A   Clear
1:01 PM -13.0 °F -38.2 °F -18.0 °F 78% 29.52 in 9.0 mi West 18.4 mph - N/A   Clear
2:01 PM -14.1 °F -35.7 °F -18.9 °F 79% 29.50 in 10.0 mi West 12.7 mph - N/A   Clear
3:01 PM -17.0 °F -38.4 °F -22.0 °F 78% 29.49 in 10.0 mi SW 11.5 mph - N/A   Clear
4:01 PM -20.0 °F -39.9 °F -25.1 °F 78% 29.49 in 10.0 mi WSW 9.2 mph - N/A   Clear
5:01 PM -18.9 °F -37.2 °F -24.0 °F 78% 29.48 in 10.0 mi SW 8.1 mph - N/A   Clear
6:01 PM -23.1 °F -44.9 °F -29.0 °F 74% 29.46 in 10.0 mi WSW 10.4 mph - N/A   Clear
7:01 PM -23.1 °F -43.7 °F -29.0 °F 74% 29.45 in 10.0 mi SSW 9.2 mph - N/A   Clear
8:01 PM -24.0 °F -46.0 °F -29.9 °F 74% 29.45 in 10.0 mi SW 10.4 mph - N/A   Clear
9:01 PM -22.0 °F -44.7 °F -27.9 °F 74% 29.45 in 10.0 mi SW 11.5 mph - N/A   Clear
10:01 PM -25.1 °F -41.3 °F -31.0 °F 74% 29.44 in 10.0 mi South 5.8 mph - N/A   Clear
11:01 PM -26.0 °F -44.2 °F -31.0 °F 77% 29.44 in 10.0 mi SW 6.9 mph - N/A   Clear